Location: Nickerson Gardens
(33.9320°N, 118.2484°W)
Time: 23:15:24
(UTC+00:00)

GOES 2 Rocket - Pass Details

Date: 29 October 2020
Orbit: 569 x 1674 km, 28.4° (Epoch: 29 November)

Event Time Altitude Azimuth Distance (km) Brightness Sun altitude
Exits shadow 12:16:01 42° 208° (SSW) 1,117 4.1 -24.2°
Maximum altitude 12:17:09 48° 173° (S) 1,060 4.2 -24.0°
Drops below altitude 10° 12:23:27 10° 101° (E) 2,797 7.5 -22.7°
Sets 12:26:39 0° 96° (E) 3,949 8.7 -22.0°
